GW5899 Weather Reports


Display with metric or nautical units.
time (UTC)temp
F
wind
direction
speed
MPH
gust
MPH
rain 1hr
in
rain 24hr
in
rain mn
in
humidity
%
barometer
mb
20260505021818 60 204 2.0 2.0 0.00 0.00 0.00 57 1001.8
20260505021315 59 203 1.0 2.0 0.00 0.00 0.00 60 1002.0
20260505020810 59 229 1.0 1.0 0.00 0.00 0.00 62 1002.2
20260505020306 58 209 2.0 2.0 0.00 0.00 0.00 63 1002.1
20260505015803 58 220 0.0 0.0 0.00 0.00 0.00 64 1002.2
20260505015300 58 217 0.0 0.0 0.00 0.00 0.00 62 1002.4
20260505014758 58 220 0.0 0.0 0.00 0.00 0.00 65 1002.4
20260505014255 58 241 0.0 0.0 0.00 0.00 0.00 62 1002.4
20260505013751 59 229 0.0 0.0 0.00 0.00 0.00 63 1002.2
20260505013248 59 221 0.0 0.0 0.00 0.00 0.00 62 1002.1
20260505012747 60 231 0.0 0.0 0.00 0.00 0.00 59 1002.3
20260505012244 60 223 0.0 0.0 0.00 0.00 0.00 57 1002.2
20260505011739 60 226 0.0 0.0 0.00 0.00 0.00 57 1002.1
20260505011237 60 219 0.0 0.0 0.00 0.00 0.00 59 1002.0
20260505010732 60 221 0.0 0.0 0.00 0.00 0.00 57 1002.0
20260505010228 61 232 0.0 0.0 0.00 0.00 0.00 57 1001.8
20260505005725 61 225 0.0 0.0 0.00 0.00 0.00 57 1001.8
20260505005222 62 224 0.0 0.0 0.00 0.00 0.00 55 1001.8
20260505004719 62 231 0.0 0.0 0.00 0.00 0.00 53 1001.9
20260505004216 63 234 0.0 0.0 0.00 0.00 0.00 52 1001.9
20260505003713 64 229 0.0 0.0 0.00 0.00 0.00 51 1001.9
20260505003211 64 227 0.0 0.0 0.00 0.00 0.00 50 1001.9
20260505002707 64 225 0.0 0.0 0.00 0.00 0.00 50 1001.9
20260505002205 64 235 0.0 0.0 0.00 0.00 0.00 51 1001.8
20260505001701 66 238 0.0 0.0 0.00 0.00 0.00 48 1002.0
20260505001159 67 230 0.0 0.0 0.00 0.00 0.00 44 1002.0
20260505000656 67 232 0.0 0.0 0.00 0.00 0.00 44 1001.9
20260505000154 68 229 0.0 0.0 0.00 0.00 0.00 43 1001.8
20260504235650 69 243 0.0 0.0 0.00 0.00 0.00 39 1001.7
20260504235146 70 237 0.0 0.0 0.00 0.00 0.00 40 1001.7
20260504234644 71 254 1.0 1.0 0.00 0.00 0.00 37 1001.7
20260504234141 71 276 3.0 3.0 0.00 0.00 0.00 36 1001.7
20260504233637 71 257 1.0 1.0 0.00 0.00 0.00 37 1001.8
20260504233133 72 242 0.0 0.0 0.00 0.00 0.00 34 1001.7
20260504232631 73 239 2.0 3.0 0.00 0.00 0.00 34 1001.6
20260504232127 73 239 2.0 3.0 0.00 0.00 0.00 34 1001.6
20260504231624 73 239 1.0 2.0 0.00 0.00 0.00 35 1001.5
20260504231120 73 255 3.0 3.0 0.00 0.00 0.00 35 1001.4
20260504230616 74 220 3.0 4.0 0.00 0.00 0.00 33 1001.6
20260504230116 73 238 4.0 4.0 0.00 0.00 0.00 32 1001.8
20260504225613 73 235 4.0 6.0 0.00 0.00 0.00 32 1001.5
20260504225109 73 222 4.0 4.0 0.00 0.00 0.00 33 1001.4
20260504224606 74 254 3.0 4.0 0.00 0.00 0.00 33 1001.6
20260504224103 74 198 3.0 3.0 0.00 0.00 0.00 33 1001.5
20260504223600 75 241 4.0 4.0 0.00 0.00 0.00 32 1001.3
20260504223055 75 225 4.0 4.0 0.00 0.00 0.00 32 1001.5
20260504222553 75 227 6.0 9.0 0.00 0.00 0.00 31 1001.3
20260504222050 75 216 4.0 4.0 0.00 0.00 0.00 32 1001.6
20260504221547 75 240 3.0 3.0 0.00 0.00 0.00 33 1001.5
20260504221044 75 211 7.0 8.0 0.00 0.00 0.00 32 1001.4
20260504220540 75 221 4.0 4.0 0.00 0.00 0.00 32 1001.6
20260504220037 75 210 8.0 10.0 0.00 0.00 0.00 32 1001.6
20260504215534 75 239 6.0 10.0 0.00 0.00 0.00 32 1001.4
20260504215032 75 159 3.0 3.0 0.00 0.00 0.00 35 1001.9
20260504214527 75 189 5.0 6.0 0.00 0.00 0.00 35 1001.8
20260504214024 75 208 4.0 4.0 0.00 0.00 0.00 35 1001.8
20260504213521 75 217 4.0 6.0 0.00 0.00 0.00 34 1001.8
20260504213018 75 210 6.0 10.0 0.00 0.00 0.00 34 1001.6
20260504212513 75 197 4.0 4.0 0.00 0.00 0.00 34 1001.8
20260504212011 75 230 8.0 10.0 0.00 0.00 0.00 32 1001.7
20260504211508 75 214 4.0 4.0 0.00 0.00 0.00 36 1001.7
20260504211005 74 227 4.0 6.0 0.00 0.00 0.00 35 1001.8
20260504210502 74 214 5.0 7.0 0.00 0.00 0.00 34 1002.0
20260504205958 74 205 5.0 7.0 0.00 0.00 0.00 36 1001.9
20260504205456 73 200 4.0 6.0 0.00 0.00 0.00 35 1002.0
20260504204954 73 229 5.0 6.0 0.00 0.00 0.00 37 1002.1
20260504204452 74 240 8.0 10.0 0.00 0.00 0.00 35 1002.2
20260504203951 74 220 8.0 9.0 0.00 0.00 0.00 35 1002.1
20260504203448 74 226 5.0 7.0 0.00 0.00 0.00 35 1002.2
20260504202944 76 225 4.0 4.0 0.00 0.00 0.00 33 1002.2
20260504202441 75 197 8.0 10.0 0.00 0.00 0.00 35 1002.3
20260504201937 75 249 7.0 9.0 0.00 0.00 0.00 34 1002.3
20260504201435 75 207 3.0 3.0 0.00 0.00 0.00 38 1002.4
20260504200932 75 254 6.0 9.0 0.00 0.00 0.00 34 1002.4
20260504200429 74 269 10.0 14.0 0.00 0.00 0.00 34 1002.4
20260504195926 73 198 10.0 13.0 0.00 0.00 0.00 35 1002.7
20260504195422 75 183 6.0 8.0 0.00 0.00 0.00 34 1002.5
20260504194918 75 191 5.0 6.0 0.00 0.00 0.00 36 1002.6
20260504194414 75 207 4.0 6.0 0.00 0.00 0.00 37 1002.8
20260504193910 75 234 8.0 10.0 0.00 0.00 0.00 34 1002.8
20260504193408 74 209 7.0 11.0 0.00 0.00 0.00 33 1003.0
20260504192907 74 235 6.0 8.0 0.00 0.00 0.00 33 1003.0
20260504192403 73 227 9.0 10.0 0.00 0.00 0.00 33 1003.0
20260504191902 74 240 14.0 21.0 0.00 0.00 0.00 36 1003.1
20260504191400 74 228 5.0 7.0 0.00 0.00 0.00 38 1003.2
20260504190855 74 241 5.0 11.0 0.00 0.00 0.00 39 1003.2
20260504190351 74 280 5.0 7.0 0.00 0.00 0.00 35 1003.2
20260504185848 73 232 7.0 8.0 0.00 0.00 0.00 37 1003.2
20260504185345 73 229 7.0 9.0 0.00 0.00 0.00 38 1003.4
20260504184841 73 202 8.0 9.0 0.00 0.00 0.00 40 1003.5
20260504184337 73 228 7.0 10.0 0.00 0.00 0.00 40 1003.6
20260504183833 73 243 8.0 9.0 0.00 0.00 0.00 41 1003.7
20260504183330 73 221 8.0 10.0 0.00 0.00 0.00 39 1003.6
20260504182828 73 227 4.0 7.0 0.00 0.00 0.00 42 1003.7
20260504182325 72 254 4.0 6.0 0.00 0.00 0.00 44 1003.8
20260504181822 72 211 7.0 8.0 0.00 0.00 0.00 41 1003.8
20260504181319 72 230 14.0 19.0 0.00 0.00 0.00 39 1003.9
20260504180818 71 225 6.0 7.0 0.00 0.00 0.00 42 1003.9
20260504180316 72 232 4.0 4.0 0.00 0.00 0.00 41 1004.2
20260504175814 72 273 4.0 7.0 0.00 0.00 0.00 41 1003.8
20260504175311 72 248 4.0 6.0 0.00 0.00 0.00 44 1003.9
20260504174809 72 240 10.0 14.0 0.00 0.00 0.00 42 1004.0
20260504174306 71 172 4.0 6.0 0.00 0.00 0.00 44 1004.0
20260504173802 71 264 7.0 9.0 0.00 0.00 0.00 44 1003.9
20260504173259 71 216 9.0 11.0 0.00 0.00 0.00 42 1004.0
20260504172756 70 226 9.0 10.0 0.00 0.00 0.00 43 1004.3
20260504172253 71 236 4.0 6.0 0.00 0.00 0.00 44 1004.2
20260504171749 70 232 6.0 9.0 0.00 0.00 0.00 46 1004.1
20260504171246 70 244 4.0 6.0 0.00 0.00 0.00 45 1004.4
20260504170743 70 217 7.0 10.0 0.00 0.00 0.00 45 1004.3
20260504170240 69 243 6.0 6.0 0.00 0.00 0.00 48 1004.3
20260504160159 67 218 7.0 8.0 0.00 0.00 0.00 45 1004.8
20260504151126 66 196 5.0 9.0 0.00 0.00 0.00 48 1005.2
20260504150624 65 229 4.0 6.0 0.00 0.00 0.00 50 1004.9
20260504150121 65 333 6.0 8.0 0.00 0.00 0.00 46 1005.1
20260504141049 63 193 5.0 7.0 0.00 0.00 0.00 49 1005.1
20260504140546 62 227 4.0 9.0 0.00 0.00 0.00 49 1005.1
20260504130510 59 202 4.0 4.0 0.00 0.00 0.00 50 1005.8
20260504110357 53 199 6.0 7.0 0.00 0.00 0.00 55 1006.0
20260504100315 52 196 3.0 4.0 0.00 0.00 0.00 57 1005.8
20260504081708 51 204 3.0 4.0 0.00 0.00 0.00 57 1006.3
20260504081204 51 228 4.0 6.0 0.00 0.00 0.00 58 1006.2
20260504080701 51 220 4.0 4.0 0.00 0.00 0.00 57 1006.3
20260504080157 51 208 2.0 3.0 0.00 0.00 0.00 59 1006.4
20260504070125 52 226 5.0 6.0 0.00 0.00 0.00 56 1006.8
20260504050514 53 235 4.0 4.0 0.00 0.00 0.00 54 1007.5
20260504050011 53 218 2.0 2.0 0.00 0.00 0.00 54 1007.5
20260504045508 53 233 1.0 2.0 0.00 0.00 0.00 54 1007.5
20260504045003 54 229 3.0 3.0 0.00 0.00 0.00 52 1007.5
20260504044500 55 223 4.0 4.0 0.00 0.00 0.00 52 1007.7
20260504043957 55 223 4.0 6.0 0.00 0.00 0.00 51 1007.8
20260504043454 55 217 4.0 4.0 0.00 0.00 0.00 49 1007.5
20260504042952 55 234 5.0 7.0 0.00 0.00 0.00 50 1007.6
20260504042448 56 229 4.0 4.0 0.00 0.00 0.00 51 1007.7
20260504041945 56 223 6.0 8.0 0.00 0.00 0.00 49 1007.6
20260504041441 56 214 5.0 7.0 0.00 0.00 0.00 48 1007.6
20260504040937 55 213 5.0 6.0 0.00 0.00 0.00 50 1007.5
20260504040435 55 228 4.0 6.0 0.00 0.00 0.00 51 1007.6
20260504035931 55 224 2.0 3.0 0.00 0.00 0.00 51 1007.6
20260504035429 56 209 3.0 4.0 0.00 0.00 0.00 50 1007.5
20260504034925 56 230 6.0 8.0 0.00 0.00 0.00 48 1007.6
20260504034423 56 240 5.0 6.0 0.00 0.00 0.00 50 1007.5
20260504033920 56 232 7.0 8.0 0.00 0.00 0.00 48 1007.5
20260504033417 56 231 8.0 11.0 0.00 0.00 0.00 49 1007.6
20260504032914 55 220 5.0 6.0 0.00 0.00 0.00 51 1007.8
20260504032411 55 249 4.0 4.0 0.00 0.00 0.00 53 1007.6
20260504031908 55 234 5.0 6.0 0.00 0.00 0.00 51 1007.6
20260504031405 55 233 3.0 3.0 0.00 0.00 0.00 52 1007.6
20260504030901 55 228 4.0 4.0 0.00 0.00 0.00 52 1007.8
20260504030359 55 230 6.0 7.0 0.00 0.00 0.00 50 1007.6
20260504025854 55 240 4.0 6.0 0.00 0.00 0.00 52 1007.6
20260504025352 55 207 4.0 7.0 0.00 0.00 0.00 53 1007.6
20260504024848 55 213 5.0 7.0 0.00 0.00 0.00 52 1007.7
20260504024344 55 208 4.0 4.0 0.00 0.00 0.00 54 1007.8
20260504023842 55 234 3.0 3.0 0.00 0.00 0.00 55 1007.9
20260504023339 55 235 5.0 6.0 0.00 0.00 0.00 53 1008.0
20260504022834 55 248 4.0 4.0 0.00 0.00 0.00 54 1008.1
20260504022331 54 235 6.0 8.0 0.00 0.00 0.00 55 1008.0